| time (UTC) | temp C | wind direction | speed KPH | gust KPH | rain 1hr cm | rain 24hr cm | rain mn cm | humidity % | barometer mb |
| 20260906173516 | 27 | 158 | 8.0 | 16.1 | 0.00 | 0.00 | 0.00 | 75 | 1018.7 |
| 20260906172517 | 27 | 158 | 8.0 | 22.5 | 0.00 | 0.00 | 0.00 | 75 | 1018.7 |
| 20260906171516 | 26 | 113 | 6.4 | 14.5 | 0.00 | 0.00 | 0.00 | 76 | 1018.9 |
| 20260906170557 | 26 | 135 | 4.8 | 11.3 | 0.00 | 0.00 | 0.00 | 78 | 1019.0 |
| 20260906165516 | 26 | 158 | 8.0 | 12.9 | 0.00 | 0.00 | 0.00 | 76 | 1019.1 |
| 20260906164516 | 26 | 135 | 6.4 | 14.5 | 0.00 | 0.00 | 0.00 | 78 | 1019.0 |
| 20260906163516 | 25 | 135 | 4.8 | 19.3 | 0.00 | 0.00 | 0.00 | 79 | 1019.1 |
| 20260906162536 | 25 | 158 | 6.4 | 16.1 | 0.00 | 0.00 | 0.00 | 80 | 1019.2 |
| 20260906161516 | 25 | 135 | 8.0 | 16.1 | 0.00 | 0.00 | 0.00 | 81 | 1019.1 |
| 20260906160516 | 25 | 158 | 8.0 | 16.1 | 0.00 | 0.00 | 0.00 | 83 | 1019.7 |
| 20260906155536 | 24 | 180 | 8.0 | 16.1 | 0.00 | 0.00 | 0.00 | 84 | 1019.4 |
| 20260906154516 | 23 | 158 | 6.4 | 14.5 | 0.00 | 0.00 | 0.00 | 87 | 1019.2 |
| 20260906153516 | 23 | 180 | 6.4 | 14.5 | 0.00 | 0.00 | 0.00 | 87 | 1019.3 |
| 20260906152516 | 22 | 158 | 8.0 | 16.1 | 0.00 | 0.00 | 0.00 | 88 | 1019.4 |
| 20260906151557 | 22 | 158 | 6.4 | 17.7 | 0.00 | 0.00 | 0.00 | 90 | 1019.4 |
| 20260906150516 | 22 | 135 | 6.4 | 17.7 | 0.00 | 0.00 | 0.00 | 91 | 1019.3 |
| 20260906145536 | 22 | 135 | 6.4 | 17.7 | 0.00 | 0.00 | 0.00 | 92 | 1019.2 |
| 20260906144537 | 22 | 135 | 4.8 | 12.9 | 0.00 | 0.00 | 0.00 | 93 | 1019.2 |
| 20260906143516 | 22 | 90 | 6.4 | 14.5 | 0.00 | 0.00 | 0.00 | 94 | 1019.3 |
| 20260906142516 | 21 | 113 | 6.4 | 14.5 | 0.00 | 0.00 | 0.00 | 95 | 1019.2 |
| 20260906141516 | 21 | 158 | 6.4 | 12.9 | 0.00 | 0.00 | 0.00 | 95 | 1019.0 |
| 20260906140516 | 21 | 135 | 4.8 | 9.7 | 0.00 | 0.00 | 0.00 | 95 | 1019.2 |
| 20260906135517 | 21 | 135 | 4.8 | 11.3 | 0.00 | 0.00 | 0.00 | 96 | 1019.0 |
| 20260906134516 | 21 | 135 | 3.2 | 9.7 | 0.00 | 0.00 | 0.00 | 96 | 1019.0 |
| 20260906133516 | 20 | 135 | 6.4 | 12.9 | 0.00 | 0.00 | 0.00 | 96 | 1018.9 |
| 20260906132536 | 20 | 158 | 3.2 | 11.3 | 0.00 | 0.00 | 0.00 | 96 | 1018.9 |
| 20260906131516 | 20 | 158 | 3.2 | 8.0 | 0.00 | 0.00 | 0.00 | 96 | 1018.9 |
| 20260906130536 | 20 | 113 | 3.2 | 9.7 | 0.00 | 0.00 | 0.00 | 96 | 1018.8 |
| 20260906125516 | 20 | 113 | 3.2 | 9.7 | 0.00 | 0.00 | 0.00 | 96 | 1018.8 |
| 20260906124516 | 20 | 113 | 3.2 | 6.4 | 0.00 | 0.00 | 0.00 | 96 | 1018.8 |
| 20260906123536 | 19 | 113 | 1.6 | 4.8 | 0.00 | 0.00 | 0.00 | 95 | 1018.8 |
| 20260906122516 | 19 | 135 | 1.6 | 3.2 | 0.00 | 0.00 | 0.00 | 95 | 1018.8 |
| 20260906121535 | 19 | 158 | 1.6 | 4.8 | 0.00 | 0.00 | 0.00 | 95 | 1018.6 |
| 20260906120515 | 19 | 135 | 1.6 | 6.4 | 0.00 | 0.00 | 0.00 | 95 | 1018.7 |
| 20260906115516 | 19 | 135 | 1.6 | 3.2 | 0.00 | 0.00 | 0.00 | 95 | 1018.6 |
| 20260906114516 | 19 | 0.0 | 3.2 | 0.00 | 0.00 | 0.00 | 95 | 1018.5 | |
| 20260906113516 | 19 | 0.0 | 1.6 | 0.00 | 0.00 | 0.00 | 95 | 1018.4 | |
| 20260906112516 | 19 | 0.0 | 3.2 | 0.00 | 0.00 | 0.00 | 95 | 1018.3 | |
| 20260906111516 | 19 | 135 | 1.6 | 4.8 | 0.00 | 0.00 | 0.00 | 95 | 1018.3 |
| 20260906110515 | 19 | 158 | 1.6 | 3.2 | 0.00 | 0.00 | 0.00 | 95 | 1018.2 |
| 20260906105516 | 19 | 158 | 1.6 | 3.2 | 0.00 | 0.00 | 0.00 | 95 | 1018.3 |
| 20260906104516 | 20 | 135 | 1.6 | 6.4 | 0.00 | 0.00 | 0.00 | 95 | 1018.2 |
| 20260906103516 | 20 | 135 | 3.2 | 6.4 | 0.00 | 0.00 | 0.00 | 95 | 1018.1 |
| 20260906102537 | 20 | 113 | 1.6 | 4.8 | 0.00 | 0.00 | 0.00 | 94 | 1018.1 |
| 20260906101515 | 20 | 113 | 1.6 | 4.8 | 0.00 | 0.00 | 0.00 | 94 | 1018.2 |
| 20260906100516 | 20 | 113 | 1.6 | 3.2 | 0.00 | 0.00 | 0.00 | 94 | 1018.1 |
| 20260906095516 | 20 | 0.0 | 3.2 | 0.00 | 0.00 | 0.00 | 94 | 1017.9 | |
| 20260906094515 | 20 | 113 | 3.2 | 4.8 | 0.00 | 0.00 | 0.00 | 94 | 1017.5 |
| 20260906093537 | 20 | 113 | 3.2 | 6.4 | 0.00 | 0.00 | 0.00 | 94 | 1017.6 |
| 20260906092515 | 20 | 113 | 3.2 | 9.7 | 0.00 | 0.00 | 0.00 | 94 | 1017.5 |
| 20260906091515 | 20 | 135 | 1.6 | 4.8 | 0.00 | 0.00 | 0.00 | 94 | 1017.3 |
| 20260906090515 | 20 | 90 | 1.6 | 4.8 | 0.00 | 0.00 | 0.00 | 94 | 1017.5 |
| 20260906085517 | 20 | 90 | 1.6 | 3.2 | 0.00 | 0.00 | 0.00 | 94 | 1017.4 |
| 20260906084536 | 20 | 90 | 1.6 | 3.2 | 0.00 | 0.00 | 0.00 | 93 | 1017.4 |
| 20260906083516 | 20 | 90 | 1.6 | 3.2 | 0.00 | 0.00 | 0.00 | 93 | 1017.3 |
| 20260906082515 | 20 | 90 | 1.6 | 4.8 | 0.00 | 0.00 | 0.00 | 93 | 1017.4 |
| 20260906081517 | 20 | 90 | 1.6 | 3.2 | 0.00 | 0.00 | 0.00 | 93 | 1017.4 |
| 20260906080517 | 20 | 90 | 1.6 | 3.2 | 0.00 | 0.00 | 0.00 | 93 | 1017.3 |
| 20260906075537 | 20 | 90 | 1.6 | 3.2 | 0.00 | 0.00 | 0.00 | 93 | 1017.3 |
| 20260906074517 | 20 | 90 | 1.6 | 3.2 | 0.00 | 0.00 | 0.00 | 93 | 1017.4 |
| 20260906073517 | 20 | 0.0 | 3.2 | 0.00 | 0.00 | 0.00 | 93 | 1017.4 | |
| 20260906072518 | 20 | 90 | 1.6 | 3.2 | 0.00 | 0.00 | 0.00 | 92 | 1017.5 |
| 20260906071517 | 20 | 0.0 | 3.2 | 0.00 | 0.00 | 0.00 | 92 | 1017.6 | |
| 20260906070517 | 20 | 90 | 1.6 | 3.2 | 0.00 | 0.00 | 0.00 | 92 | 1017.6 |
| 20260906065517 | 20 | 90 | 3.2 | 4.8 | 0.00 | 0.00 | 0.00 | 92 | 1017.6 |
| 20260906064517 | 20 | 90 | 3.2 | 4.8 | 0.00 | 0.00 | 0.00 | 92 | 1017.8 |
| 20260906063517 | 21 | 90 | 3.2 | 4.8 | 0.00 | 0.00 | 0.00 | 92 | 1017.7 |
| 20260906062517 | 21 | 113 | 1.6 | 4.8 | 0.00 | 0.00 | 0.00 | 92 | 1017.7 |
| 20260906061518 | 21 | 90 | 3.2 | 6.4 | 0.00 | 0.00 | 0.00 | 92 | 1017.8 |
| 20260906060538 | 21 | 90 | 1.6 | 6.4 | 0.00 | 0.00 | 0.00 | 92 | 1017.6 |
| 20260906055517 | 21 | 90 | 1.6 | 4.8 | 0.00 | 0.00 | 0.00 | 91 | 1017.7 |
| 20260906054517 | 21 | 0.0 | 0.0 | 0.00 | 0.00 | 0.00 | 91 | 1017.7 | |
| 20260906053517 | 21 | 90 | 1.6 | 3.2 | 0.00 | 0.00 | 0.00 | 91 | 1017.6 |
| 20260906052537 | 21 | 90 | 1.6 | 3.2 | 0.00 | 0.00 | 0.00 | 91 | 1017.7 |
| 20260906051517 | 21 | 0.0 | 3.2 | 0.00 | 0.00 | 0.00 | 90 | 1017.7 | |
| 20260906050518 | 21 | 0.0 | 1.6 | 0.00 | 0.00 | 0.00 | 90 | 1017.6 | |
| 20260906045518 | 21 | 90 | 1.6 | 3.2 | 0.00 | 0.00 | 0.00 | 89 | 1017.6 |
| 20260906044538 | 21 | 0.0 | 0.0 | 0.00 | 0.00 | 0.00 | 89 | 1017.6 | |
| 20260906043517 | 21 | 0.0 | 0.0 | 0.00 | 0.00 | 0.00 | 89 | 1017.6 | |
| 20260906042518 | 21 | 0.0 | 0.0 | 0.00 | 0.00 | 0.00 | 89 | 1017.7 | |
| 20260906041517 | 21 | 0.0 | 1.6 | 0.00 | 0.00 | 0.00 | 88 | 1017.8 | |
| 20260906040537 | 21 | 0.0 | 0.0 | 0.00 | 0.00 | 0.00 | 87 | 1017.7 | |
| 20260906035517 | 21 | 0.0 | 1.6 | 0.00 | 0.00 | 0.00 | 86 | 1017.7 | |
| 20260906034517 | 21 | 0.0 | 0.0 | 0.00 | 0.00 | 0.00 | 86 | 1017.7 | |
| 20260906033517 | 21 | 0.0 | 1.6 | 0.00 | 0.00 | 0.00 | 86 | 1017.8 | |
| 20260906032517 | 22 | 90 | 1.6 | 3.2 | 0.00 | 0.00 | 0.00 | 85 | 1017.8 |
| 20260906031517 | 22 | 0.0 | 0.0 | 0.00 | 0.00 | 0.00 | 84 | 1018.0 | |
| 20260906030517 | 22 | 0.0 | 1.6 | 0.00 | 0.00 | 0.00 | 84 | 1017.9 | |
| 20260906025517 | 22 | 90 | 1.6 | 1.6 | 0.00 | 0.00 | 0.00 | 84 | 1018.0 |
| 20260906024517 | 22 | 0.0 | 0.0 | 0.00 | 0.00 | 0.00 | 84 | 1018.2 | |
| 20260906023517 | 22 | 0.0 | 1.6 | 0.00 | 0.00 | 0.00 | 83 | 1017.9 | |
| 20260906022517 | 23 | 90 | 1.6 | 3.2 | 0.00 | 0.00 | 0.00 | 82 | 1017.9 |
| 20260906021517 | 23 | 90 | 1.6 | 3.2 | 0.00 | 0.00 | 0.00 | 81 | 1017.5 |
| 20260906020517 | 23 | 90 | 1.6 | 3.2 | 0.00 | 0.00 | 0.00 | 80 | 1017.2 |
| 20260906015517 | 23 | 90 | 1.6 | 3.2 | 0.00 | 0.00 | 0.00 | 79 | 1016.8 |
| 20260906014537 | 24 | 90 | 1.6 | 4.8 | 0.00 | 0.00 | 0.00 | 78 | 1016.4 |
| 20260906013518 | 24 | 90 | 1.6 | 6.4 | 0.00 | 0.00 | 0.00 | 77 | 1016.3 |
| 20260906012517 | 24 | 113 | 3.2 | 6.4 | 0.00 | 0.00 | 0.00 | 76 | 1016.2 |
| 20260906011517 | 25 | 135 | 1.6 | 6.4 | 0.00 | 0.00 | 0.00 | 75 | 1016.2 |
| 20260906010517 | 25 | 135 | 3.2 | 9.7 | 0.00 | 0.00 | 0.00 | 75 | 1016.0 |
| 20260906005517 | 25 | 90 | 3.2 | 6.4 | 0.00 | 0.00 | 0.00 | 74 | 1015.6 |
| 20260906004517 | 25 | 158 | 1.6 | 8.0 | 0.00 | 0.00 | 0.00 | 74 | 1015.6 |
| 20260906003517 | 26 | 90 | 4.8 | 12.9 | 0.00 | 0.00 | 0.00 | 74 | 1015.2 |
| 20260906002516 | 26 | 113 | 6.4 | 14.5 | 0.00 | 0.00 | 0.00 | 73 | 1015.2 |
| 20260906001517 | 26 | 113 | 8.0 | 14.5 | 0.00 | 0.00 | 0.00 | 73 | 1015.2 |
| 20260906000517 | 26 | 113 | 4.8 | 12.9 | 0.00 | 0.00 | 0.00 | 72 | 1015.3 |
| 20260905235517 | 26 | 90 | 3.2 | 11.3 | 0.00 | 0.00 | 0.00 | 72 | 1015.6 |
| 20260905234517 | 27 | 90 | 6.4 | 16.1 | 0.00 | 0.00 | 0.00 | 72 | 1015.5 |
| 20260905233517 | 27 | 68 | 6.4 | 14.5 | 0.00 | 0.00 | 0.00 | 71 | 1015.3 |
| 20260905232517 | 27 | 68 | 3.2 | 6.4 | 0.00 | 0.00 | 0.00 | 71 | 1015.3 |
| 20260905231517 | 27 | 68 | 9.7 | 17.7 | 0.00 | 0.00 | 0.00 | 70 | 1015.0 |
| 20260905230517 | 27 | 113 | 8.0 | 14.5 | 0.00 | 0.00 | 0.00 | 69 | 1015.0 |
| 20260905225516 | 27 | 113 | 4.8 | 11.3 | 0.00 | 0.00 | 0.00 | 69 | 1014.9 |
| 20260905224517 | 27 | 68 | 11.3 | 24.1 | 0.00 | 0.00 | 0.00 | 67 | 1014.9 |
| 20260905223517 | 28 | 68 | 12.9 | 22.5 | 0.00 | 0.00 | 0.00 | 66 | 1015.1 |
| 20260905222537 | 28 | 68 | 9.7 | 24.1 | 0.00 | 0.00 | 0.00 | 66 | 1015.3 |
| 20260905221537 | 28 | 68 | 12.9 | 22.5 | 0.00 | 0.00 | 0.00 | 64 | 1015.5 |
| 20260905220517 | 28 | 90 | 4.8 | 16.1 | 0.00 | 0.00 | 0.00 | 65 | 1015.7 |
| 20260905215516 | 28 | 45 | 8.0 | 16.1 | 0.00 | 0.00 | 0.00 | 67 | 1015.3 |
| 20260905214537 | 28 | 68 | 11.3 | 24.1 | 0.00 | 0.00 | 0.00 | 66 | 1015.2 |
| 20260905213516 | 29 | 90 | 9.7 | 19.3 | 0.00 | 0.00 | 0.00 | 68 | 1015.4 |
| 20260905212516 | 29 | 68 | 11.3 | 17.7 | 0.00 | 0.00 | 0.00 | 67 | 1015.6 |
| 20260905211516 | 29 | 68 | 12.9 | 20.9 | 0.00 | 0.00 | 0.00 | 66 | 1015.9 |
| 20260905210516 | 30 | 90 | 6.4 | 20.9 | 0.00 | 0.00 | 0.00 | 68 | 1016.3 |
| 20260905205516 | 29 | 68 | 6.4 | 16.1 | 0.00 | 0.00 | 0.00 | 68 | 1016.4 |
| 20260905204536 | 29 | 68 | 8.0 | 17.7 | 0.00 | 0.00 | 0.00 | 67 | 1016.3 |
| 20260905203516 | 29 | 90 | 8.0 | 16.1 | 0.00 | 0.00 | 0.00 | 68 | 1016.6 |
| 20260905202516 | 28 | 113 | 4.8 | 9.7 | 0.00 | 0.00 | 0.00 | 70 | 1016.6 |
| 20260905201516 | 28 | 45 | 4.8 | 14.5 | 0.00 | 0.00 | 0.00 | 71 | 1017.1 |
| 20260905200536 | 28 | 90 | 4.8 | 14.5 | 0.00 | 0.00 | 0.00 | 70 | 1017.1 |
| 20260905195536 | 28 | 68 | 4.8 | 14.5 | 0.00 | 0.00 | 0.00 | 71 | 1017.3 |
| 20260905194516 | 28 | 45 | 4.8 | 9.7 | 0.00 | 0.00 | 0.00 | 72 | 1017.2 |
| 20260905193536 | 28 | 68 | 6.4 | 16.1 | 0.00 | 0.00 | 0.00 | 72 | 1017.5 |
| 20260905192516 | 28 | 113 | 4.8 | 12.9 | 0.00 | 0.00 | 0.00 | 73 | 1017.7 |
| 20260905191516 | 28 | 158 | 4.8 | 11.3 | 0.00 | 0.00 | 0.00 | 73 | 1017.5 |
| 20260905190516 | 27 | 158 | 4.8 | 11.3 | 0.00 | 0.00 | 0.00 | 75 | 1017.6 |
| 20260905185536 | 27 | 90 | 4.8 | 12.9 | 0.00 | 0.00 | 0.00 | 77 | 1017.5 |
| 20260905184516 | 26 | 180 | 4.8 | 14.5 | 0.00 | 0.00 | 0.00 | 77 | 1017.6 |
| 20260905183616 | 26 | 45 | 4.8 | 9.7 | 0.00 | 0.00 | 0.00 | 78 | 1017.5 |
| 20260905182516 | 26 | 113 | 1.6 | 4.8 | 0.00 | 0.00 | 0.00 | 79 | 1017.6 |
| 20260905181516 | 26 | 113 | 8.0 | 16.1 | 0.00 | 0.00 | 0.00 | 80 | 1017.7 |
| 20260905180516 | 25 | 180 | 4.8 | 11.3 | 0.00 | 0.00 | 0.00 | 84 | 1017.8 |
| 20260905175516 | 24 | 68 | 1.6 | 4.8 | 0.00 | 0.00 | 0.00 | 89 | 1017.8 |
| 20260905174516 | 23 | 45 | 4.8 | 9.7 | 0.00 | 0.00 | 0.00 | 90 | 1017.7 |